YO8SSH-13 Weather Reports


time (UTC)temp
C
wind
direction
speed
KPH
gust
KPH
rain 1hr
cm
rain 24hr
cm
rain mn
cm
humidity
%
barometer
mb
20260506003526 11 292 0.0 0.0 0.00 0.00 0.00 56 1010.0
20260506002028 12 292 0.0 0.0 0.00 0.00 0.00 55 1010.0
20260506000527 12 0 0.0 0.0 0.00 0.00 0.00 54 1010.0
20260505235027 12 0 0.0 0.0 0.00 0.00 0.00 53 1010.0
20260505233526 12 0 0.0 0.0 0.00 0.00 0.00 51 1010.0
20260505232027 12 68 0.0 0.0 0.00 0.00 0.00 51 1010.0
20260505230525 13 90 0.0 0.0 0.00 0.00 0.00 49 1010.0
20260505225027 13 248 0.0 0.0 0.00 0.00 0.00 49 1010.0
20260505223526 13 292 0.0 0.0 0.00 0.00 0.00 48 1010.0
20260505222026 13 292 0.0 0.0 0.00 0.00 0.00 47 1010.0
20260505220526 14 292 0.0 0.0 0.00 0.00 0.00 46 1010.0
20260505215027 14 292 0.0 0.0 0.00 0.00 0.00 46 1010.0
20260505213525 15 292 0.0 1.6 0.00 0.00 0.00 45 1010.0
20260505212027 15 292 0.0 0.0 0.00 0.00 0.00 44 1010.0
20260505210526 16 292 0.0 0.0 0.00 0.00 0.00 42 1010.0
20260505205028 16 248 0.0 0.0 0.00 0.00 0.00 41 1010.0
20260505203527 17 292 0.0 0.0 0.00 0.00 0.00 39 1010.0
20260505202028 17 225 0.0 0.0 0.00 0.00 0.00 37 1010.0
20260505200525 17 202 0.0 0.0 0.00 0.00 0.00 37 1010.0
20260505195034 18 135 0.0 0.0 0.00 0.00 0.00 36 1010.0
20260505193527 18 135 0.0 3.2 0.00 0.00 0.00 36 1010.0
20260505192025 18 112 0.0 0.0 0.00 0.00 0.00 35 1010.0
20260505190525 19 135 0.0 0.0 0.00 0.00 0.00 33 1010.0
20260505185026 20 90 0.0 0.0 0.00 0.00 0.00 32 1010.0
20260505183526 20 135 0.0 0.0 0.00 0.00 0.00 32 1010.0
20260505182026 21 90 0.0 0.0 0.00 0.00 0.00 31 1010.0
20260505180526 21 112 0.0 0.0 0.00 0.00 0.00 30 1010.0
20260505175026 22 135 0.0 0.0 0.00 0.00 0.00 28 1009.0
20260505173525 22 112 0.0 0.0 0.00 0.00 0.00 26 1009.0
20260505172026 23 135 0.0 1.6 0.00 0.00 0.00 25 1009.0
20260505170527 24 158 0.0 0.0 0.00 0.00 0.00 24 1009.0
20260505165026 25 112 1.6 3.2 0.00 0.00 0.00 23 1009.0
20260505163527 26 135 0.0 0.0 0.00 0.00 0.00 22 1009.0
20260505162026 26 135 0.0 3.2 0.00 0.00 0.00 21 1010.0
20260505160525 27 112 0.0 8.0 0.00 0.00 0.00 21 1010.0
20260505152026 28 158 3.2 4.8 0.00 0.00 0.00 20 1010.0
20260505150527 28 135 4.8 4.8 0.00 0.00 0.00 21 1010.0
20260505140528 28 180 1.6 9.7 0.00 0.00 0.00 20 1010.0
20260505125025 30 180 6.4 11.3 0.00 0.00 0.00 20 1010.0
20260505123527 29 180 6.4 9.7 0.00 0.00 0.00 20 1011.0
20260505122025 29 180 4.8 9.7 0.00 0.00 0.00 20 1011.0
20260505121609 29 180 1.6 9.7 0.00 0.00 0.00 20 1011.0
20260505120110 29 68 6.4 9.7 0.00 0.00 0.00 19 1011.0
20260505114608 28 158 0.0 8.0 0.00 0.00 0.00 20 1011.0
20260505113109 29 90 9.7 9.7 0.00 0.00 0.00 20 1011.0
20260505111610 28 22 3.2 12.9 0.00 0.00 0.00 22 1011.0
20260505110908 28 158 12.9 12.9 0.00 0.00 0.00 22 1011.0
20260505100906 27 158 1.6 3.2 0.00 0.00 0.00 24 1012.0
20260505095407 27 135 3.2 3.2 0.00 0.00 0.00 26 1012.0
20260505093907 27 158 0.0 1.6 0.00 0.00 0.00 26 1012.0
20260505092407 27 158 0.0 3.2 0.00 0.00 0.00 28 1012.0
20260505090908 26 315 1.6 4.8 0.00 0.00 0.00 28 1012.0
20260505085408 26 158 3.2 3.2 0.00 0.00 0.00 31 1012.0
20260505083907 25 68 3.2 3.2 0.00 0.00 0.00 31 1013.0
20260505082407 25 180 0.0 1.6 0.00 0.00 0.00 33 1013.0
20260505080909 25 135 3.2 3.2 0.00 0.00 0.00 34 1013.0
20260505075407 25 112 0.0 4.8 0.00 0.00 0.00 35 1013.0
20260505073920 24 338 0.0 0.0 0.00 0.00 0.00 37 1013.0
20260505072407 23 22 0.0 0.0 0.00 0.00 0.00 38 1013.0
20260505070909 23 158 1.6 3.2 0.00 0.00 0.00 38 1013.0
20260505065407 23 90 0.0 1.6 0.00 0.00 0.00 39 1013.0
20260505063906 22 315 1.6 3.2 0.00 0.00 0.00 41 1013.0
20260505062407 22 270 0.0 3.2 0.00 0.00 0.00 43 1013.0
20260505060907 21 22 0.0 0.0 0.00 0.00 0.00 46 1013.0
20260505055406 19 315 0.0 1.6 0.00 0.00 0.00 49 1013.0
20260505053907 18 315 0.0 0.0 0.00 0.00 0.00 52 1013.0
20260505052407 16 338 0.0 1.6 0.00 0.00 0.00 58 1013.0
20260505050908 13 292 0.0 0.0 0.00 0.00 0.00 62 1013.0
20260505040907 9 0 0.0 0.0 0.00 0.00 0.00 66 1013.0
20260505035406 8 338 0.0 0.0 0.00 0.00 0.00 66 1013.0
20260505033907 8 0 0.0 0.0 0.00 0.00 0.00 66 1013.0
20260505032410 8 0 0.0 0.0 0.00 0.00 0.00 65 1013.0
20260505030907 8 315 0.0 0.0 0.00 0.00 0.00 64 1012.0
20260505025426 8 315 0.0 0.0 0.00 0.00 0.00 64 1012.0
20260505023906 9 292 0.0 0.0 0.00 0.00 0.00 63 1012.0
20260505022408 9 315 0.0 0.0 0.00 0.00 0.00 62 1012.0
20260505020907 9 315 0.0 0.0 0.00 0.00 0.00 61 1012.0
20260505015407 10 315 0.0 0.0 0.00 0.00 0.00 60 1012.0
20260505013907 10 315 0.0 0.0 0.00 0.00 0.00 60 1012.0
20260505012406 10 292 0.0 0.0 0.00 0.00 0.00 59 1012.0
20260505010906 10 292 0.0 0.0 0.00 0.00 0.00 58 1012.0
20260505005407 11 292 0.0 0.0 0.00 0.00 0.00 58 1012.0